When you browse on this site, cookies collect data to enhance your experience and personalize the content and advertising you see.
Visit our Privacy Policy to learn more. By continuing to use the site, you agree to this use of cookies and data.
  • en France
  • Liste des pays
  • À 7 jours
  • Température de l'eau
  • Carte satellitaire
  • Carte météo
  • Widgets météo
  • user-avatar
    Se connecter

    Météo par heure à Cacheu

    Ce jour, 25 Mai, Samedi

    Heure Température Précipitation Vent Pression Humidité
    00:00 +28°C° 0 mm 2 m/s 757 mmHg 61%
    01:00 +27°C° 0 mm 2 m/s 757 mmHg 63%
    02:00 +27°C° 0 mm 1 m/s 757 mmHg 65%
    03:00 +27°C° 0 mm 1 m/s 757 mmHg 66%
    04:00 +26°C° 0 mm 1 m/s 757 mmHg 67%
    05:00 +26°C° 0 mm 1 m/s 757 mmHg 69%
    06:00 +27°C° 0 mm 2 m/s 758 mmHg 65%
    07:00 +27°C° 0 mm 2 m/s 758 mmHg 62%
    08:00 +28°C° 0 mm 2 m/s 758 mmHg 58%
    09:00 +31°C° 0 mm 2 m/s 758 mmHg 48%
    10:00 +35°C° 0 mm 1 m/s 758 mmHg 37%
    11:00 +39°C° 0 mm 1 m/s 758 mmHg 27%
    12:00 +40°C° 0 mm 1 m/s 757 mmHg 26%
    13:00 +40°C° 0 mm 2 m/s 757 mmHg 25%
    14:00 +41°C° 0 mm 2 m/s 756 mmHg 24%
    15:00 +39°C° 0 mm 3 m/s 756 mmHg 29%
    16:00 +38°C° 0 mm 4 m/s 756 mmHg 35%
    17:00 +36°C° 0 mm 5 m/s 756 mmHg 40%
    18:00 +34°C° 0 mm 5 m/s 756 mmHg 46%
    19:00 +32°C° 0 mm 4 m/s 757 mmHg 52%
    20:00 +29°C° 0 mm 4 m/s 757 mmHg 59%
    21:00 +28°C° 0 mm 3 m/s 758 mmHg 60%
    22:00 +28°C° 0 mm 3 m/s 758 mmHg 62%
    23:00 +28°C° 0 mm 2 m/s 758 mmHg 64%

    Demain, 26 Mai, Dimanche

    Heure Température Précipitation Vent Pression Humidité
    00:00 +27°C° 0 mm 2 m/s 758 mmHg 66%
    01:00 +27°C° 0 mm 2 m/s 758 mmHg 67%
    02:00 +27°C° 0 mm 1 m/s 758 mmHg 69%
    03:00 +27°C° 0 mm 1 m/s 758 mmHg 70%
    04:00 +27°C° 0 mm 1 m/s 758 mmHg 71%
    05:00 +26°C° 0 mm 1 m/s 758 mmHg 72%
    06:00 +27°C° 0 mm 1 m/s 758 mmHg 69%
    07:00 +28°C° 0 mm 1 m/s 759 mmHg 65%
    08:00 +29°C° 0 mm 1 m/s 759 mmHg 61%
    09:00 +31°C° 0 mm 1 m/s 759 mmHg 54%
    10:00 +33°C° 0 mm 1 m/s 759 mmHg 48%
    11:00 +36°C° 0 mm 2 m/s 759 mmHg 41%
    12:00 +36°C° 0 mm 2 m/s 758 mmHg 39%
    13:00 +37°C° 0 mm 3 m/s 758 mmHg 38%
    14:00 +38°C° 0 mm 4 m/s 757 mmHg 36%
    15:00 +37°C° 0 mm 4 m/s 757 mmHg 38%
    16:00 +36°C° 0 mm 4 m/s 757 mmHg 41%
    17:00 +34°C° 0 mm 5 m/s 757 mmHg 43%
    18:00 +33°C° 0 mm 4 m/s 757 mmHg 48%
    19:00 +30°C° 0 mm 3 m/s 757 mmHg 52%
    20:00 +29°C° 0 mm 3 m/s 758 mmHg 56%
    21:00 +29°C° 0 mm 3 m/s 758 mmHg 58%
    22:00 +28°C° 0 mm 3 m/s 759 mmHg 59%
    23:00 +28°C° 0 mm 2 m/s 759 mmHg 61%

    Après-demain, 27 Mai, Lundi

    Heure Température Précipitation Vent Pression Humidité
    00:00 +28°C° 0 mm 2 m/s 759 mmHg 62%
    01:00 +27°C° 0 mm 2 m/s 758 mmHg 64%
    02:00 +27°C° 0 mm 2 m/s 758 mmHg 65%
    03:00 +27°C° 0 mm 2 m/s 758 mmHg 66%
    04:00 +27°C° 0 mm 2 m/s 758 mmHg 67%
    05:00 +26°C° 0 mm 1 m/s 758 mmHg 68%
    06:00 +27°C° 0 mm 1 m/s 758 mmHg 63%
    07:00 +28°C° 0 mm 2 m/s 758 mmHg 59%
    08:00 +29°C° 0 mm 2 m/s 759 mmHg 55%
    09:00 +31°C° 0 mm 2 m/s 759 mmHg 47%
    10:00 +34°C° 0 mm 1 m/s 759 mmHg 39%
    11:00 +37°C° 0 mm 1 m/s 759 mmHg 31%
    12:00 +39°C° 0 mm 2 m/s 758 mmHg 31%
    13:00 +39°C° 0 mm 2 m/s 757 mmHg 30%
    14:00 +40°C° 0 mm 3 m/s 757 mmHg 29%
    15:00 +40°C° 0 mm 4 m/s 756 mmHg 32%
    16:00 +37°C° 0 mm 4 m/s 756 mmHg 36%
    17:00 +36°C° 0 mm 5 m/s 756 mmHg 39%
    18:00 +34°C° 0 mm 4 m/s 756 mmHg 43%
    19:00 +32°C° 0 mm 4 m/s 757 mmHg 48%
    20:00 +30°C° 0 mm 3 m/s 758 mmHg 52%
    21:00 +29°C° 0 mm 3 m/s 758 mmHg 54%
    22:00 +29°C° 0 mm 3 m/s 758 mmHg 56%
    23:00 +28°C° 0 mm 2 m/s 758 mmHg 57%

    28 Mai, Mardi

    Heure Température Précipitation Vent Pression Humidité
    00:00 +28°C° 0 mm 2 m/s 758 mmHg 59%
    01:00 +28°C° 0 mm 2 m/s 757 mmHg 60%
    02:00 +27°C° 0 mm 2 m/s 757 mmHg 61%
    03:00 +27°C° 0 mm 2 m/s 757 mmHg 62%
    04:00 +27°C° 0 mm 2 m/s 757 mmHg 63%
    05:00 +26°C° 0 mm 2 m/s 757 mmHg 64%
    06:00 +28°C° 0 mm 2 m/s 757 mmHg 58%
    07:00 +29°C° 0 mm 2 m/s 758 mmHg 52%
    08:00 +30°C° 0 mm 2 m/s 759 mmHg 46%
    09:00 +34°C° 0 mm 2 m/s 759 mmHg 40%
    10:00 +36°C° 0 mm 2 m/s 759 mmHg 33%
    11:00 +39°C° 0 mm 1 m/s 759 mmHg 27%
    12:00 +40°C° 0 mm 2 m/s 758 mmHg 26%
    13:00 +40°C° 0 mm 3 m/s 757 mmHg 25%
    14:00 +42°C° 0 mm 3 m/s 756 mmHg 24%
    15:00 +41°C° 0 mm 4 m/s 756 mmHg 26%
    16:00 +40°C° 0 mm 5 m/s 756 mmHg 28%
    17:00 +39°C° 0 mm 5 m/s 755 mmHg 30%
    18:00 +36°C° 0 mm 5 m/s 756 mmHg 34%
    19:00 +34°C° 0 mm 5 m/s 757 mmHg 38%
    20:00 +32°C° 0 mm 4 m/s 757 mmHg 41%
    21:00 +30°C° 0 mm 4 m/s 758 mmHg 44%
    22:00 +29°C° 0 mm 4 m/s 758 mmHg 47%
    23:00 +29°C° 0 mm 3 m/s 758 mmHg 50%

    29 Mai, Mercredi

    Heure Température Précipitation Vent Pression Humidité
    00:00 +28°C° 0 mm 3 m/s 758 mmHg 51%
    01:00 +28°C° 0 mm 3 m/s 758 mmHg 52%
    02:00 +28°C° 0 mm 2 m/s 757 mmHg 53%
    03:00 +27°C° 0 mm 2 m/s 757 mmHg 53%
    04:00 +27°C° 0 mm 2 m/s 757 mmHg 54%
    05:00 +27°C° 0 mm 2 m/s 758 mmHg 54%
    06:00 +28°C° 0 mm 2 m/s 758 mmHg 50%
    07:00 +29°C° 0 mm 3 m/s 758 mmHg 45%
    08:00 +31°C° 0 mm 3 m/s 759 mmHg 40%
    09:00 +34°C° 0 mm 3 m/s 758 mmHg 34%
    10:00 +37°C° 0 mm 3 m/s 758 mmHg 27%
    11:00 +39°C° 0 mm 3 m/s 758 mmHg 20%
    12:00 +41°C° 0 mm 4 m/s 757 mmHg 19%
    13:00 +42°C° 0 mm 4 m/s 756 mmHg 18%
    14:00 +43°C° 0 mm 4 m/s 755 mmHg 17%
    15:00 +43°C° 0 mm 5 m/s 755 mmHg 19%
    16:00 +42°C° 0 mm 5 m/s 754 mmHg 21%
    17:00 +41°C° 0 mm 6 m/s 754 mmHg 23%
    18:00 +37°C° 0 mm 5 m/s 755 mmHg 29%
    19:00 +34°C° 0 mm 5 m/s 755 mmHg 36%
    20:00 +30°C° 0 mm 5 m/s 756 mmHg 43%
    21:00 +30°C° 0 mm 5 m/s 756 mmHg 42%
    22:00 +30°C° 0 mm 4 m/s 757 mmHg 42%
    23:00 +29°C° 0 mm 4 m/s 757 mmHg 41%

    30 Mai, Jeudi

    Heure Température Précipitation Vent Pression Humidité
    00:00 +29°C° 0 mm 4 m/s 756 mmHg 41%
    01:00 +29°C° 0 mm 3 m/s 756 mmHg 40%
    02:00 +28°C° 0 mm 3 m/s 755 mmHg 40%
    03:00 +28°C° 0 mm 3 m/s 755 mmHg 42%
    04:00 +27°C° 0 mm 2 m/s 755 mmHg 44%
    05:00 +26°C° 0 mm 2 m/s 755 mmHg 45%
    06:00 +28°C° 0 mm 2 m/s 756 mmHg 40%
    07:00 +30°C° 0 mm 2 m/s 756 mmHg 35%
    08:00 +31°C° 0 mm 2 m/s 757 mmHg 29%
    09:00 +35°C° 0 mm 2 m/s 757 mmHg 24%
    10:00 +38°C° 0 mm 2 m/s 756 mmHg 18%
    11:00 +41°C° 0 mm 2 m/s 756 mmHg 12%
    12:00 +42°C° 0 mm 2 m/s 755 mmHg 13%
    13:00 +44°C° 0 mm 3 m/s 755 mmHg 13%
    14:00 +45°C° 0 mm 3 m/s 754 mmHg 14%
    15:00 +43°C° 0 mm 4 m/s 754 mmHg 19%
    16:00 +41°C° 0 mm 4 m/s 753 mmHg 24%
    17:00 +39°C° 0 mm 5 m/s 753 mmHg 29%
    18:00 +36°C° 0 mm 5 m/s 754 mmHg 37%
    19:00 +33°C° 0 mm 4 m/s 754 mmHg 44%
    20:00 +30°C° 0 mm 4 m/s 755 mmHg 52%
    21:00 +29°C° 0 mm 3 m/s 755 mmHg 55%
    22:00 +29°C° 0 mm 3 m/s 756 mmHg 59%
    23:00 +28°C° 0 mm 3 m/s 756 mmHg 62%
    Voir plus